Location: Dresden
(51.0300°N, 13.7800°E)
Time: 22:57:18
(UTC+01:00)

COSMOS 2463 - Visible Passes

Search period start: 13 January 2026 00:00
Search period end: 23 January 2026 00:00
Orbit: 967 x 1020 km, 83.0° (Epoch: 13 January)

Date Brightness Start Highest point End Pass type
(mag) Time Alt. Az. Time Alt. Az. Time Alt. Az.
13 Jan 5.8 17:27:03 10° SSW 17:33:31 75° W 17:39:59 10° N visible
13 Jan 8.0 19:16:23 10° W 19:20:29 17° WNW 19:24:36 10° NNW visible
14 Jan 6.7 17:58:27 10° SW 18:04:34 44° WNW 18:10:42 10° N visible
15 Jan 7.6 18:30:35 10° WSW 18:35:52 26° WNW 18:41:09 10° N visible
16 Jan 6.0 17:13:53 10° SSW 17:20:20 68° WNW 17:26:45 10° N visible
16 Jan 8.1 19:03:44 10° W 19:07:26 16° NW 19:11:07 10° NNW visible
17 Jan 6.9 17:45:25 10° SW 17:51:25 39° WNW 17:57:24 10° N visible
18 Jan 7.7 18:17:44 10° WSW 18:22:46 23° WNW 18:27:47 10° N visible
19 Jan 6.2 17:00:45 10° SSW 17:07:08 61° WNW 17:13:29 10° N visible
19 Jan 8.1 18:51:10 10° W 18:54:23 14° NW 18:57:33 10° NNW visible
20 Jan 7.1 17:32:26 10° SW 17:38:16 35° WNW 17:44:06 10° N visible
21 Jan 7.8 18:04:55 10° WSW 18:09:40 21° WNW 18:14:24 10° NNW visible
22 Jan 8.1 18:38:44 10° WNW 18:41:19 12° NW 18:43:54 10° NNW visible
